ZHONGXING-1D

Last updated on Wed Sep 09 2026 00:03:03 GMT+0000 (Coordinated Universal Time)

1 49505U 21114A 26251.47090660 -.00000357 00000+0 00000+0 0 9994 2 49505 0.0306 97.2504 0001458 190.4728 359.5206 1.00269322 17654
UTC large
Height (km)
Speed (km/s)
/
Latitude / Longitude
Inclination (degrees)
Orbital Period (minutes)
Azimuth
Elevation
Range (km)
Doppler Factor

Next 0 passes for location: London (51.5072 / 0.1276)

No passes found over London.
ZHONGXING-1D